Погода в Мельнике

Чехия     50°21′07″N   14°28′29″E
темп.,
°C
ветер,
м/с
пор.,
м/с
влажн.,
%
обл.,
%
осадки,
мм/ч
давл.,
гПа
погр.,
м
10 апреля, сб
сб1023:00+7зюз236837 0.0 101634
02:00+5юз228171 0.0 101516
05:00+4ююв228433 0.0 101414
08:00+7ююв247683 0.0 1015141
11:00+9юз41171100 0.1 1015522
14:00+9зюз51079100 0.2 1016567
17:00+11зюз3676100 0.3 1016618
20:00+9ююв118463 0.3 101610
11 апреля, вс
вс1123:00+7в339281 0.0 101669
02:00+6в359492 0.0 101592
05:00+5вюв3692100 0.0 1015110
08:00+6вюв488386 0.0 1015339
11:00+11юв556571 0.0 1015893
14:00+14вюв4555100 0.0 10131106
17:00+15вюв345297 0.0 10111120
20:00+10в357794 0.0 101280
12 апреля, пн
пн1223:00+9в2381100 0.0 101241
02:00+8всв228686 0.0 101337
05:00+6всв11925 0.0 101310
08:00+8ссв118659 0.0 1015138
11:00+12с437196 0.0 1015962
14:00+5ссз81181100 0.0 1018606
17:00+3сз61396100 0.8 1019684
20:00+2сз41298100 3.0 1021603
13 апреля, вт
вт1323:00+1зсз51299100 7.2 1024549
02:00+1зсз410100100 11.1 1025611
05:00+1с1394100 1.2 1026180
08:00+2зсз378999 1.2 1027594
11:00+3ссз5772100 0.0 10271247
14:00+5ссз5763100 0.1 10271536
17:00+5сз4765100 0.1 10261506
20:00+3зсз3374100 0.1 102753
14 апреля, ср
ср1423:00+2з3576100 0.0 1027100
02:00+1з3680100 0.0 1026110
05:00+1зсз3885100 0.0 1027218
08:00+2сз4980100 0.0 1027628
11:00+5ссз6763100 0.0 10271447
14:00+5ссз6759100 0.2 10261423
17:00+7ссз5747100 0.1 10251790
20:00+4сз3768100 0.1 1025179